Terminal Aerodrome Forecast
Issued by NWS Wilmington, OH

Current Version | Previous Version | Graphics & Text | Print | Product List | Glossary On
Versions: 1 2 3 4 5 6 7 8 9 10 11 12 13 14 15 16 17 18 19 20 21 22 23 24 25 26 27 28
524
FTUS41 KILN 300126 AAA
TAFCMH
TAF AMD
KCMH 300126Z 3001/3024 03006KT P6SM BKN020 OVC200
     FM300200 05006KT P6SM SCT020 OVC200
     FM300900 07006KT 5SM BR BKN050
     FM301200 08009KT P6SM OVC050
     FM301800 11009G17KT 4SM -SHRA BR OVC025=

USA.gov is the U.S. government's official web portal to all federal, state and local government web resources and services.